GM4ZUK-13 Weather Reports


Display with metric or nautical units.
time (UTC)temp
F
wind
direction
speed
MPH
gust
MPH
rain 1hr
in
rain 24hr
in
rain mn
in
humidity
%
barometer
mb
20260902122708 56 147 2.0 7.0 0.00 0.05 0.00 80 1021.5
20260902121808 56 154 3.0 6.0 0.00 0.05 0.00 79 1021.5
20260902120908 56 153 3.0 7.0 0.00 0.05 0.00 76 1021.5
20260902120010 56 147 3.0 8.0 0.00 0.05 0.00 76 1021.7
20260902115110 57 145 3.0 7.0 0.00 0.05 0.00 74 1021.6
20260902114208 57 152 2.0 8.0 0.00 0.05 0.00 73 1021.6
20260902113308 58 151 3.0 8.0 0.00 0.05 0.00 75 1021.6
20260902112409 58 150 2.0 7.0 0.00 0.05 0.00 73 1021.7
20260902104557 60 157 3.0 4.0 0.00 0.05 0.00 68 1021.7
20260902103657 62 157 0.0 2.0 0.00 0.05 0.00 66 1021.6
20260902102757 60 157 0.0 2.0 0.00 0.05 0.00 68 1021.6
20260902102110 61 157 1.0 2.0 0.00 0.05 0.00 67 1021.8
20260902100957 59 157 2.0 4.0 0.00 0.05 0.00 70 1021.8
20260902100057 60 155 1.0 4.0 0.00 0.05 0.00 70 1021.8
20260902095157 61 157 0.0 2.0 0.00 0.05 0.00 69 1022.0
20260902094257 60 157 0.0 2.0 0.00 0.05 0.00 70 1022.0
20260902093357 60 157 1.0 4.0 0.00 0.05 0.00 73 1022.0
20260902092457 58 157 0.0 2.0 0.00 0.05 0.00 77 1022.0
20260902091558 57 157 0.0 2.0 0.00 0.05 0.00 77 1021.7
20260902090909 57 157 0.0 4.0 0.00 0.05 0.00 75 1021.8
20260902085758 59 157 1.0 4.0 0.00 0.05 0.00 72 1022.1
20260902085108 60 157 2.0 2.0 0.00 0.05 0.00 71 1022.0
20260902083958 58 157 1.0 2.0 0.00 0.05 0.00 74 1022.3
20260902083057 57 0 0.0 0.0 0.00 0.05 0.00 75 1022.3
20260902082157 57 157 0.0 2.0 0.00 0.05 0.00 77 1022.2
20260902081257 56 0 0.0 0.0 0.00 0.05 0.00 80 1022.2
20260902080358 55 0 0.0 0.0 0.00 0.06 0.00 78 1022.2
20260902075457 55 157 0.0 2.0 0.00 0.06 0.00 77 1022.3
20260902074810 56 157 0.0 2.0 0.00 0.06 0.00 78 1022.2
20260902073658 53 157 0.0 2.0 0.00 0.06 0.00 82 1022.4
20260902072757 52 0 0.0 0.0 0.00 0.06 0.00 85 1022.3
20260902071857 51 0 0.0 0.0 0.00 0.06 0.00 85 1022.2
20260902070958 51 157 0.0 2.0 0.00 0.06 0.00 86 1022.1
20260902070057 49 157 1.0 2.0 0.00 0.06 0.00 89 1022.0
20260902065158 48 157 0.0 2.0 0.00 0.06 0.00 93 1022.0
20260902064257 47 157 1.0 2.0 0.00 0.06 0.00 94 1022.1
20260902063358 49 0 0.0 0.0 0.00 0.06 0.00 96 1022.2
20260902062457 46 0 0.0 0.0 0.00 0.06 0.00 97 1022.0
20260902061557 46 0 0.0 0.0 0.00 0.06 0.00 97 1022.0
20260902060910 46 157 0.0 2.0 0.00 0.06 0.00 98 1021.9
20260902055757 44 0 0.0 0.0 0.00 0.06 0.00 98 1021.8
20260902054858 43 0 0.0 0.0 0.00 0.06 0.00 98 1021.9
20260902053957 43 0 0.0 0.0 0.00 0.06 0.00 98 1021.9
20260902053058 43 0 0.0 0.0 0.00 0.06 0.00 98 1022.2
20260902052157 42 0 0.0 0.0 0.00 0.06 0.00 98 1021.8
20260902051257 43 0 0.0 0.0 0.00 0.06 0.00 98 1022.1
20260902050357 42 0 0.0 0.0 0.00 0.06 0.00 98 1021.9
20260902045457 42 0 0.0 0.0 0.00 0.06 0.00 98 1022.0
20260902044558 41 0 0.0 0.0 0.00 0.06 0.00 98 1021.8
20260902043658 39 0 0.0 0.0 0.00 0.06 0.00 98 1021.7
20260902042757 39 0 0.0 0.0 0.00 0.06 0.00 97 1021.8
20260902041857 38 0 0.0 0.0 0.00 0.06 0.00 97 1021.7
20260902040958 38 0 0.0 0.0 0.00 0.06 0.00 97 1021.7
20260902040058 39 0 0.0 0.0 0.00 0.06 0.00 97 1021.6
20260902035157 39 0 0.0 0.0 0.00 0.06 0.00 97 1021.4
20260902034257 39 0 0.0 0.0 0.00 0.06 0.00 97 1021.7
20260902033357 39 0 0.0 0.0 0.00 0.06 0.00 96 1021.5
20260902032707 38 0 0.0 0.0 0.00 0.06 0.00 96 1021.6
20260902031558 39 0 0.0 0.0 0.00 0.06 0.00 95 1021.6
20260902030912 39 0 0.0 0.0 0.00 0.06 0.00 95 1021.5
20260902030010 40 0 0.0 0.0 0.00 0.06 0.00 95 1021.6
20260902024857 40 0 0.0 0.0 0.00 0.06 0.00 95 1021.3
20260902023957 40 0 0.0 0.0 0.00 0.06 0.00 94 1021.5
20260902023058 41 0 0.0 0.0 0.00 0.06 0.00 94 1021.1
20260902022157 42 0 0.0 0.0 0.00 0.06 0.00 94 1021.5
20260902021257 42 0 0.0 0.0 0.00 0.06 0.00 94 1021.2
20260902020357 43 0 0.0 0.0 0.00 0.06 0.00 93 1021.4
20260902014605 43 0 0.0 0.0 0.00 0.06 0.00 92 1021.3
20260902013706 43 0 0.0 0.0 0.00 0.06 0.00 92 1021.1
20260902012807 44 0 0.0 0.0 0.00 0.06 0.00 92 1021.0
20260902011906 44 0 0.0 0.0 0.00 0.06 0.00 92 1020.6
20260902011005 44 0 0.0 0.0 0.00 0.06 0.00 92 1020.7
20260902010106 44 0 0.0 0.0 0.00 0.06 0.00 93 1020.6
20260902005206 44 0 0.0 0.0 0.00 0.06 0.00 93 1020.5
20260902004307 44 0 0.0 0.0 0.00 0.06 0.00 94 1020.4
20260902003405 43 0 0.0 0.0 0.00 0.06 0.00 93 1020.3
20260902002507 43 0 0.0 0.0 0.00 0.06 0.00 93 1020.3
20260902001607 43 0 0.0 0.0 0.00 0.06 0.00 92 1020.4
20260902000706 44 0 0.0 0.0 0.00 0.06 0.00 91 1020.4
20260901235807 44 0 0.0 0.0 0.00 0.06 0.00 90 1020.3
20260901234905 46 0 0.0 0.0 0.00 0.06 0.00 90 1020.4
20260901234005 46 0 0.0 0.0 0.00 0.06 0.00 90 1020.2
20260901233105 46 0 0.0 0.0 0.00 0.06 0.00 89 1020.0
20260901232205 46 0 0.0 0.0 0.00 0.06 0.00 89 1020.1
20260901231307 46 0 0.0 0.0 0.00 0.06 0.00 87 1020.2
20260901230408 47 0 0.0 0.0 0.00 0.06 0.00 86 1020.2
20260901225507 48 0 0.0 0.0 0.00 0.06 0.06 85 1020.3
20260901224605 49 0 0.0 0.0 0.00 0.06 0.06 86 1019.9
20260901223707 48 0 0.0 0.0 0.00 0.06 0.06 89 1019.8
20260901223020 47 0 0.0 0.0 0.00 0.06 0.06 90 1020.0
20260901221906 46 0 0.0 0.0 0.00 0.06 0.06 89 1019.9
20260901221006 46 0 0.0 0.0 0.00 0.06 0.06 89 1019.8
20260901220106 47 0 0.0 0.0 0.00 0.06 0.06 90 1020.2
20260901215206 45 0 0.0 0.0 0.00 0.06 0.06 90 1020.0
20260901214308 45 0 0.0 0.0 0.00 0.06 0.06 89 1019.9
20260901213405 46 0 0.0 0.0 0.00 0.06 0.06 89 1020.3
20260901212505 46 0 0.0 0.0 0.00 0.06 0.06 88 1020.2
20260901211607 46 0 0.0 0.0 0.00 0.06 0.06 88 1020.0
20260901210706 46 0 0.0 0.0 0.00 0.06 0.06 88 1019.9
20260901205811 46 0 0.0 0.0 0.00 0.06 0.06 88 1020.0
20260901205116 47 0 0.0 0.0 0.00 0.06 0.06 87 1019.9
20260901204006 47 0 0.0 0.0 0.00 0.06 0.06 86 1019.9
20260901203107 47 0 0.0 0.0 0.00 0.06 0.06 85 1019.9
20260901202206 48 0 0.0 0.0 0.00 0.06 0.06 84 1019.7
20260901201306 49 0 0.0 0.0 0.00 0.06 0.06 83 1019.6
20260901200407 50 0 0.0 0.0 0.00 0.06 0.06 83 1019.5
20260901195505 51 157 0.0 2.0 0.00 0.06 0.06 81 1019.4
20260901194606 50 157 0.0 2.0 0.00 0.06 0.06 82 1019.1
20260901193707 50 157 0.0 2.0 0.00 0.06 0.06 82 1019.0
20260901192805 51 0 0.0 0.0 0.00 0.06 0.06 80 1019.1
20260901191911 52 0 0.0 0.0 0.00 0.06 0.06 79 1019.0
20260901191006 53 0 0.0 0.0 0.00 0.06 0.06 79 1018.8
20260901190106 54 0 0.0 0.0 0.00 0.06 0.06 77 1018.7
20260901185206 55 0 0.0 0.0 0.00 0.06 0.06 76 1018.3
20260901184519 56 0 0.0 0.0 0.00 0.06 0.06 74 1018.3
20260901183410 59 157 0.0 2.0 0.00 0.06 0.06 72 1018.4
20260901182507 60 157 0.0 2.0 0.00 0.06 0.06 68 1018.1
20260901181606 61 157 1.0 2.0 0.00 0.06 0.06 66 1018.1
20260901180707 61 157 0.0 2.0 0.00 0.06 0.06 67 1017.9
20260901175807 62 157 1.0 2.0 0.00 0.06 0.06 63 1017.7
20260901174907 63 157 1.0 4.0 0.00 0.06 0.06 62 1017.8
20260901174008 63 157 2.0 4.0 0.00 0.06 0.06 59 1017.7
20260901173107 64 157 0.0 4.0 0.00 0.06 0.06 61 1017.7
20260901172205 64 157 1.0 4.0 0.00 0.06 0.06 56 1017.5
20260901171305 65 157 1.0 6.0 0.00 0.06 0.06 57 1017.4
20260901170405 65 157 2.0 4.0 0.00 0.06 0.06 54 1017.1
20260901165717 65 157 2.0 4.0 0.00 0.06 0.06 55 1017.2
20260901164605 65 157 2.0 4.0 0.00 0.06 0.06 56 1017.1
20260901163705 66 157 2.0 4.0 0.00 0.06 0.06 55 1017.0
20260901162805 66 157 2.0 4.0 0.00 0.06 0.06 58 1016.9
20260901161905 66 157 2.0 4.0 0.00 0.06 0.06 61 1016.9
20260901161007 65 157 2.0 4.0 0.00 0.06 0.06 64 1016.8
20260901160321 66 157 2.0 4.0 0.00 0.06 0.06 64 1016.6
20260901155206 67 157 2.0 4.0 0.00 0.06 0.06 65 1016.7
20260901154307 67 157 2.0 4.0 0.00 0.06 0.06 64 1016.6
20260901153407 67 157 2.0 4.0 0.00 0.06 0.06 66 1016.6
20260901152506 67 157 2.0 4.0 0.00 0.06 0.06 67 1016.4
20260901151605 67 157 2.0 4.0 0.00 0.06 0.06 69 1016.2
20260901150705 66 157 2.0 4.0 0.00 0.06 0.06 71 1016.3
20260901145807 67 157 2.0 4.0 0.00 0.06 0.06 74 1016.3
20260901144906 66 157 2.0 2.0 0.00 0.06 0.06 75 1016.5
20260901144005 65 157 1.0 2.0 0.00 0.06 0.06 79 1016.3
20260901143106 64 157 1.0 2.0 0.00 0.06 0.06 80 1016.4
20260901142205 64 156 1.0 4.0 0.01 0.06 0.06 81 1016.2
20260901141305 64 154 2.0 4.0 0.01 0.06 0.06 84 1016.1
20260901140616 64 157 1.0 2.0 0.02 0.06 0.06 86 1015.8
20260901135719 64 157 0.0 4.0 0.05 0.06 0.06 87 1015.6
20260901134607 64 157 1.0 2.0 0.05 0.06 0.06 89 1015.7
20260901133919 63 157 1.0 2.0 0.05 0.06 0.06 91 1015.7
20260901132805 63 157 1.0 2.0 0.05 0.06 0.06 93 1015.9
20260901132118 63 157 0.0 2.0 0.04 0.05 0.05 92 1015.7
20260901131006 63 157 0.0 2.0 0.04 0.05 0.05 88 1015.5
20260901130318 65 157 1.0 4.0 0.02 0.04 0.04 82 1015.6
20260901125206 66 157 2.0 11.0 0.00 0.01 0.01 78 1015.5
20260901124305 67 157 2.0 8.0 0.00 0.01 0.01 76 1015.3